Location: Taipo
(41.0000°S, 175.9500°E)
Time: 02:51:17
(UTC+00:00)

NOSS 3-2 (C) - Pass Details

Date: 18 April 2024
Orbit: 712 x 1499 km, 63.4° (Epoch: 28 April)

Event Time Altitude Azimuth Distance (km) Brightness Sun altitude
Exits shadow 15:57:41 78° 240° (WSW) 1,415 4.0 -33.1°
Maximum altitude 15:57:45 78° 235° (SW) 1,413 4.0 -33.1°
Drops below altitude 10° 16:05:44 10° 147° (SSE) 3,197 6.7 -31.6°
Sets 16:08:19 0° 145° (SE) 4,061 7.4 -31.1°
